Location: Brachbach
(49.1847°N, 9.7240°E)
Time: 03:21:16
(UTC+00:00)

Cosmos 1455 - Pass Details

Date: 23 May 2024
Orbit: 445 x 460 km, 82.5° (Epoch: 19 June)

Event Time Altitude Azimuth Distance (km) Brightness Sun altitude
Rises 02:02:23 0° 331° (NNW) 2,460 5.9 -11.2°
Reaches altitude 10° 02:05:29 10° 299° (WNW) 1,583 4.6 -10.9°
Maximum altitude 02:06:54 12° 275° (W) 1,453 4.1 -10.7°
Enters shadow 02:07:57 11° 256° (WSW) 1,523 4.1 -10.6°
